• Join FlightAware (Why Join?)
  • Login
  • US Flag 
07:19PM EDT


 

Airport Tracker/Info


-or-


 

Live Flight TrackerFlight Track Log ✈ N319EE ✈ 02-Oct-2013 ✈ KROC - KALB

Flight Track Log - Related Links

Times and Time Zones

All times are in EDT time to prevent confusion due to time zone crossing. See the N319EE flight status page for this flight to view local times or setup timezone preferences in your user account.

Time Position Orientation Groundspeed Altitude Reporting Facility
EDT Latitude Longitude Course Direction KTS MPH feet Rate Location/Type
01:23PM 43.0800 -77.6369 122° Southeast 180 207 3,000  Level Cleveland Center
01:24PM 43.0775 -77.6292 114° Southeast 177 204 3,200 1,440 Climbing Cleveland Center
01:25PM 43.0683 -77.5436 98° East 184 212 5,000 1,680 Climbing Cleveland Center
01:26PM 43.0614 -77.4631 97° East 203 234 6,700 1,560 Climbing Cleveland Center
01:27PM 43.0556 -77.3822 96° East 214 246 8,300 1,500 Climbing Cleveland Center
01:28PM 43.0735 -77.1074 100° East  Level Estimated
01:28PM 43.0506 -77.2983 95° East 220 253 9,900  Level Cleveland Center
01:29PM 43.0439 -77.2133 96° East 226 260 11,500 1,440 Climbing Cleveland Center
01:30PM 43.0369 -77.1219 96° East 241 277 12,900 1,500 Climbing Cleveland Center
01:31PM 43.0303 -77.0303 96° East 242 278 14,600 1,560 Climbing Cleveland Center
01:32PM 43.0231 -76.9219 95° East 240 276 16,200 1,140 Climbing Cleveland Center
01:33PM 43.0150 -76.8264 97° East 253 291 17,000 360 Climbing Cleveland Center
01:34PM 43.0061 -76.7150 96° East 296 341 17,000  Level Cleveland Center
01:35PM 42.9967 -76.5969 96° East 311 358 17,100  Climbing Cleveland Center
01:36PM 42.9881 -76.4797 96° East 310 357 17,100  Level Cleveland Center
01:37PM 42.9789 -76.3631 96° East 309 356 17,100  Level Cleveland Center
01:38PM 42.9717 -76.2256 94° East 302 348 17,100 -60 Level Cleveland Center
01:39PM 42.9606 -76.1031 97° East 311 358 17,000 -60 Descending Boston Center
01:40PM 42.9517 -75.9864 96° East 311 358 17,000  Level Boston Center
01:41PM 42.9428 -75.8694 96° East 311 358 17,000  Level Boston Center
01:42PM 42.9317 -75.7497 97° East 311 358 17,000  Level Boston Center
01:43PM 42.9206 -75.6328 97° East 311 358 17,000  Level Boston Center
01:44PM 42.9111 -75.5161 96° East 311 358 17,000  Level Boston Center
01:45PM 42.9019 -75.3967 96° East 311 358 17,000  Level Boston Center
01:46PM 42.8922 -75.2800 96° East 311 358 17,000  Level Boston Center
01:47PM 42.8789 -75.1433 98° East 322 371 17,000  Level Boston Center
01:48PM 42.8692 -75.0267 96° East 327 376 17,000  Level Boston Center
01:49PM 42.8572 -74.9044 98° East 316 364 17,000 -900 Level Boston Center
01:50PM 42.8431 -74.7847 99° East 316 364 15,300 -1,800 Descending Boston Center
01:51PM 42.8328 -74.6711 97° East 364 419 13,700 -1,740 Descending Boston Center
01:51PM 42.8308 -74.6625 107° East 339 390 13,600 -1,980 Descending Boston Center
01:52PM 42.8261 -74.5917 95° East 363 418 12,500 -2,100 Descending Boston Center
01:52PM 42.8192 -74.5178 97° East 357 411 11,500 -1,620 Descending Boston Center
01:53PM 42.8119 -74.4581 99° East 356 410 10,900 -1,200 Descending Boston Center
01:53PM 42.8067 -74.3983 97° East 351 404 10,400 -1,380 Descending Boston Center
01:54PM 42.8014 -74.3333 96° East 333 383 9,500 -1,680 Descending Boston Center
01:54PM 42.8108 -74.2683 79° East 328 377 8,700 -1,500 Descending Boston Center
01:55PM 42.8181 -74.2119 80° East 310 357 8,000 -1,440 Descending Boston Center
01:55PM 42.8231 -74.1611 82° East 317 365 7,300 -1,500 Descending Boston Center
01:56PM 42.8303 -74.0992 81° East 307 353 6,500 -1,500 Descending Boston Center
01:56PM 42.8414 -74.0428 75° East 307 353 5,800 -1,500 Descending Boston Center
01:57PM 42.8442 -73.9892 86° East 294 338 5,000 -1,500 Descending Boston Center
01:57PM 42.8533 -73.9383 76° East 295 339 4,300 -1,020 Descending Boston Center
01:58PM 42.8600 -73.8903 79° East 267 307 4,000 -300 Descending Boston Center
01:58PM 42.8669 -73.8367 80° East 273 314 4,000  Level Boston Center
01:59PM 42.8739 -73.7914 78° East 257 296 4,000  Level Boston Center
01:59PM 42.8806 -73.7406 80° East 262 302 4,000  Level Boston Center
02:00PM 42.8875 -73.6869 80° East 257 296 4,000  Level Boston Center
02:00PM 42.8919 -73.6531 80° East 257 296 4,000  Level Boston Center
02:01PM 42.8822 -73.5933 103° East 255 293 4,000  Level Boston Center
02:01PM 42.8531 -73.5872 171° South 207 238 4,000  Level Boston Center
02:02PM 42.8281 -73.5811 170° South 231 266 4,000 -660 Level Boston Center
02:02PM 42.7928 -73.5661 163° South 212 244 3,400 -1,020 Descending Boston Center
02:03PM 42.7678 -73.5742 193° South 219 252 3,000 -420 Descending Boston Center
02:03PM 42.7569 -73.6078 246° West 172 198 3,000 -240 Level Boston Center
02:04PM 42.7567 -73.6333 269° West 138 159 2,800 -600 Descending Boston Center
02:04PM 42.7586 -73.6617 275° West 136 157 2,400 -780 Descending Boston Center
02:05PM 42.7603 -73.6872 275° West 132 152 2,000 -840 Descending Boston Center
02:05PM 42.7558 -73.7153 258° West 136 157 1,600 -840 Descending Boston Center
02:06PM 42.7514 -73.7408 257° West 138 159 1,200 -840 Descending Boston Center
02:07PM 42.7489 -73.7858 266° West 123 142 400 -780 Descending Boston Center